RYR43JZ LFOB-LPMA

Flight info

Callsign RYR43JZ
Flight time 3h 17m
Altitude 35000
Route LGL UT176 TERPO UN872 ERIGA DCT FUJTI DCT BAKUP DCT BATAX DCT BUSEN DCT NASAS DCT LIDRO
Aircraft B738/M-SDE3FGILRWY/SB1

Departure

Time 2026-04-26 04:51
Airport Beauvais-Tillé airport (LFOB)

Arrival

Time 2026-04-26 08:09
Airport Cristiano Ronaldo International Airport (LPMA)
Time Latitude Longitude Altitude Speed Heading
2026-04-26 04:26 49.45803 2.11171 346 ft 0 kts 34°
2026-04-26 04:42 49.45800 2.11169 346 ft 3 kts 34°
2026-04-26 04:42 49.45782 2.11150 357 ft 3 kts 34°
2026-04-26 04:42 49.45767 2.11134 354 ft 3 kts 49°
2026-04-26 04:42 49.45760 2.11109 357 ft 3 kts 100°
2026-04-26 04:43 49.45767 2.11078 355 ft 3 kts 122°
2026-04-26 04:43 49.45770 2.11070 347 ft 1 kts 124°
2026-04-26 04:45 49.45767 2.11077 347 ft 3 kts 124°
2026-04-26 04:45 49.45739 2.11148 351 ft 12 kts 122°
2026-04-26 04:46 49.45699 2.11267 345 ft 13 kts 95°
2026-04-26 04:46 49.45749 2.11373 351 ft 13 kts 41°
2026-04-26 04:46 49.45798 2.11476 346 ft 12 kts 94°
2026-04-26 04:46 49.45750 2.11580 349 ft 12 kts 131°
2026-04-26 04:47 49.45680 2.11602 348 ft 12 kts 217°
2026-04-26 04:47 49.45620 2.11522 354 ft 12 kts 222°
2026-04-26 04:47 49.45551 2.11429 345 ft 14 kts 221°
2026-04-26 04:47 49.45478 2.11331 340 ft 14 kts 216°
2026-04-26 04:48 49.45336 2.11528 336 ft 19 kts 124°
2026-04-26 04:48 49.45255 2.11712 335 ft 23 kts 123°
2026-04-26 04:48 49.45161 2.11930 332 ft 26 kts 123°
2026-04-26 04:49 49.45057 2.12170 329 ft 24 kts 123°
2026-04-26 04:49 49.44963 2.12389 327 ft 24 kts 123°
2026-04-26 04:49 49.44871 2.12599 320 ft 23 kts 124°
2026-04-26 04:49 49.44784 2.12800 315 ft 22 kts 123°
2026-04-26 04:50 49.44702 2.12989 312 ft 14 kts 124°
2026-04-26 04:50 49.44673 2.13131 309 ft 13 kts 95°
2026-04-26 04:50 49.44635 2.13153 310 ft 8 kts 250°
2026-04-26 04:50 49.44653 2.13096 309 ft 6 kts 302°
2026-04-26 04:51 49.44726 2.12925 313 ft 51 kts 304°
2026-04-26 04:51 49.45067 2.12140 330 ft 123 kts 304°
2026-04-26 04:51 49.45646 2.10807 574 ft 163 kts 303°
2026-04-26 04:51 49.46286 2.09314 1324 ft 175 kts 303°
2026-04-26 04:52 49.46878 2.07546 1851 ft 200 kts 291°
2026-04-26 04:52 49.47190 2.05277 2103 ft 231 kts 274°
2026-04-26 04:52 49.47189 2.02713 2492 ft 249 kts 269°
2026-04-26 04:52 49.47003 1.99950 2907 ft 267 kts 250°
2026-04-26 04:53 49.45906 1.97697 3797 ft 266 kts 212°
2026-04-26 04:53 49.44258 1.96436 4756 ft 267 kts 204°
2026-04-26 04:53 49.42551 1.95226 5579 ft 273 kts 205°
2026-04-26 04:53 49.40827 1.93962 6440 ft 277 kts 206°
2026-04-26 04:54 49.39106 1.92672 7259 ft 280 kts 206°
2026-04-26 04:54 49.37341 1.91281 8119 ft 283 kts 211°
2026-04-26 04:54 49.35692 1.89678 8944 ft 286 kts 214°
2026-04-26 04:54 49.34033 1.87973 9780 ft 289 kts 214°
2026-04-26 04:55 49.32355 1.86246 10555 ft 294 kts 214°
2026-04-26 04:55 49.30590 1.84445 10835 ft 317 kts 214°
2026-04-26 04:55 49.28682 1.82521 11081 ft 339 kts 214°
2026-04-26 04:55 49.26679 1.80519 11662 ft 347 kts 214°
2026-04-26 04:56 49.24639 1.78488 12403 ft 351 kts 214°
2026-04-26 04:56 49.22628 1.76355 13182 ft 353 kts 222°
2026-04-26 04:56 49.21130 1.73384 13940 ft 355 kts 241°
2026-04-26 04:56 49.19971 1.70094 14624 ft 358 kts 243°
2026-04-26 04:57 49.18813 1.66703 15267 ft 362 kts 243°
2026-04-26 04:57 49.17645 1.63279 15932 ft 365 kts 243°
2026-04-26 04:57 49.16456 1.59819 16591 ft 369 kts 243°
2026-04-26 04:57 49.15249 1.56338 17266 ft 372 kts 243°
2026-04-26 04:58 49.14024 1.52827 17913 ft 376 kts 243°
2026-04-26 04:58 49.12781 1.49281 18519 ft 380 kts 243°
2026-04-26 04:58 49.11526 1.45715 19091 ft 383 kts 243°
2026-04-26 04:58 49.10260 1.42124 19692 ft 385 kts 243°
2026-04-26 04:59 49.08988 1.38517 20309 ft 386 kts 243°
2026-04-26 04:59 49.07709 1.34897 20896 ft 389 kts 243°
2026-04-26 04:59 49.06422 1.31258 21436 ft 391 kts 243°
2026-04-26 04:59 49.05127 1.27599 22014 ft 393 kts 243°
2026-04-26 05:00 49.03836 1.23963 22547 ft 396 kts 243°
2026-04-26 05:00 49.02527 1.20262 23087 ft 398 kts 244°
2026-04-26 05:00 49.01229 1.16521 23601 ft 401 kts 244°
2026-04-26 05:00 48.99934 1.12754 24073 ft 403 kts 244°
2026-04-26 05:01 48.98631 1.08964 24512 ft 405 kts 244°
2026-04-26 05:01 48.97319 1.05155 24934 ft 408 kts 244°
2026-04-26 05:01 48.95997 1.01326 25354 ft 410 kts 244°
2026-04-26 05:01 48.94664 0.97475 25761 ft 412 kts 244°
2026-04-26 05:02 48.93319 0.93601 26174 ft 415 kts 244°
2026-04-26 05:02 48.91967 0.89718 26586 ft 417 kts 244°
2026-04-26 05:02 48.90606 0.85809 26992 ft 418 kts 244°
2026-04-26 05:02 48.89242 0.81896 27382 ft 420 kts 244°
2026-04-26 05:03 48.87884 0.78010 27741 ft 423 kts 244°
2026-04-26 05:03 48.86501 0.74057 28119 ft 425 kts 244°
2026-04-26 05:03 48.85109 0.70085 28482 ft 427 kts 244°
2026-04-26 05:03 48.83708 0.66093 28833 ft 430 kts 244°
2026-04-26 05:04 48.82297 0.62078 29166 ft 432 kts 244°
2026-04-26 05:04 48.80878 0.58052 29478 ft 434 kts 244°
2026-04-26 05:04 48.79451 0.54010 29781 ft 436 kts 243°
2026-04-26 05:04 48.77771 0.50176 30147 ft 437 kts 233°
2026-04-26 05:05 48.75815 0.46629 30542 ft 439 kts 232°
2026-04-26 05:05 48.73801 0.43179 30976 ft 438 kts 230°
2026-04-26 05:05 48.71754 0.39789 31443 ft 433 kts 230°
2026-04-26 05:05 48.69776 0.36319 31751 ft 437 kts 231°
2026-04-26 05:06 48.67798 0.32935 32096 ft 435 kts 232°
2026-04-26 05:06 48.65822 0.29463 32411 ft 436 kts 232°
2026-04-26 05:06 48.63859 0.26009 32799 ft 434 kts 232°
2026-04-26 05:06 48.61892 0.22547 33123 ft 434 kts 232°
2026-04-26 05:07 48.59922 0.19081 33430 ft 434 kts 232°
2026-04-26 05:07 48.57961 0.15636 33777 ft 433 kts 232°
2026-04-26 05:07 48.56009 0.12185 34134 ft 431 kts 233°
2026-04-26 05:07 48.54066 0.08734 34420 ft 431 kts 233°
2026-04-26 05:08 48.52134 0.05292 34660 ft 431 kts 233°
2026-04-26 05:08 48.50197 0.01844 34918 ft 430 kts 233°
2026-04-26 05:08 48.48265 -0.01586 35184 ft 429 kts 233°
2026-04-26 05:08 48.46354 -0.04979 35214 ft 430 kts 233°
2026-04-26 05:09 48.42470 -0.11844 35249 ft 434 kts 233°
2026-04-26 05:09 48.40505 -0.15318 35357 ft 438 kts 233°
2026-04-26 05:09 48.38524 -0.18803 35556 ft 438 kts 233°
2026-04-26 05:10 48.36546 -0.22279 35835 ft 436 kts 233°
2026-04-26 05:10 48.34576 -0.25738 36124 ft 435 kts 232°
2026-04-26 05:10 48.32602 -0.29170 36364 ft 434 kts 232°
2026-04-26 05:10 48.30621 -0.32586 36585 ft 434 kts 232°
2026-04-26 05:11 48.28636 -0.36001 36830 ft 433 kts 232°
2026-04-26 05:11 48.26654 -0.39408 37075 ft 433 kts 232°
2026-04-26 05:11 48.24678 -0.42809 37219 ft 433 kts 232°
2026-04-26 05:11 48.22687 -0.46228 37208 ft 436 kts 232°
2026-04-26 05:12 48.18727 -0.53016 37213 ft 434 kts 232°
2026-04-26 05:12 48.14755 -0.59811 37215 ft 432 kts 232°
2026-04-26 05:13 48.10797 -0.66568 37211 ft 431 kts 232°
2026-04-26 05:13 48.06852 -0.73283 37207 ft 429 kts 232°
2026-04-26 05:14 48.02918 -0.79967 37209 ft 428 kts 232°
2026-04-26 05:14 47.98992 -0.86621 37205 ft 428 kts 232°
2026-04-26 05:15 47.95062 -0.93259 37213 ft 429 kts 232°
2026-04-26 05:15 47.91115 -0.99912 37213 ft 431 kts 232°
2026-04-26 05:16 47.87119 -1.06632 37209 ft 433 kts 232°
2026-04-26 05:16 47.83100 -1.13373 37207 ft 435 kts 232°
2026-04-26 05:17 47.79071 -1.20114 37189 ft 437 kts 231°
2026-04-26 05:17 47.75031 -1.26859 37196 ft 437 kts 231°
2026-04-26 05:18 47.70979 -1.33601 37198 ft 437 kts 231°
2026-04-26 05:18 47.66925 -1.40331 37193 ft 437 kts 231°
2026-04-26 05:19 47.62877 -1.47041 37197 ft 436 kts 231°
2026-04-26 05:19 47.58878 -1.53644 37189 ft 435 kts 231°
2026-04-26 05:20 47.54821 -1.60323 37190 ft 434 kts 231°
2026-04-26 05:20 47.50791 -1.66949 37181 ft 432 kts 231°
2026-04-26 05:21 47.46764 -1.73541 37192 ft 432 kts 231°
2026-04-26 05:21 47.42738 -1.80123 37188 ft 432 kts 231°
2026-04-26 05:22 47.38724 -1.86680 37187 ft 431 kts 231°
2026-04-26 05:22 47.34578 -1.93055 37180 ft 432 kts 223°
2026-04-26 05:23 47.29573 -1.97853 37197 ft 435 kts 214°
2026-04-26 05:23 47.24341 -2.02406 37177 ft 436 kts 214°
2026-04-26 05:24 47.19134 -2.06993 37188 ft 437 kts 214°
2026-04-26 05:24 47.13937 -2.11608 37174 ft 438 kts 214°
2026-04-26 05:25 47.08704 -2.16256 37184 ft 438 kts 214°
2026-04-26 05:25 47.03484 -2.20883 37180 ft 439 kts 214°
2026-04-26 05:26 46.98285 -2.25478 37186 ft 440 kts 214°
2026-04-26 05:26 46.93043 -2.30103 37180 ft 440 kts 214°
2026-04-26 05:27 46.87798 -2.34720 37187 ft 440 kts 214°
2026-04-26 05:27 46.82556 -2.39321 37187 ft 439 kts 214°
2026-04-26 05:28 46.77327 -2.43912 37183 ft 438 kts 214°
2026-04-26 05:28 46.72148 -2.48447 37183 ft 436 kts 213°
2026-04-26 05:29 46.66946 -2.52989 37189 ft 436 kts 213°
2026-04-26 05:29 46.61744 -2.57519 37194 ft 435 kts 213°
2026-04-26 05:30 46.56555 -2.62035 37189 ft 435 kts 213°
2026-04-26 05:30 46.51372 -2.66531 37176 ft 433 kts 213°
2026-04-26 05:31 46.46194 -2.71018 37193 ft 432 kts 213°
2026-04-26 05:31 46.41017 -2.75487 37194 ft 434 kts 213°
2026-04-26 05:32 46.35856 -2.79938 37196 ft 435 kts 213°
2026-04-26 05:32 46.30651 -2.84420 37186 ft 436 kts 213°
2026-04-26 05:33 46.25438 -2.88899 37194 ft 436 kts 213°
2026-04-26 05:33 46.20276 -2.93386 37192 ft 435 kts 213°
2026-04-26 05:34 46.15066 -2.97929 37193 ft 435 kts 213°
2026-04-26 05:34 46.09882 -3.02438 37185 ft 435 kts 213°
2026-04-26 05:35 46.04733 -3.06899 37196 ft 434 kts 213°
2026-04-26 05:35 45.99549 -3.11380 37192 ft 435 kts 213°
2026-04-26 05:36 45.94359 -3.15857 37192 ft 435 kts 213°
2026-04-26 05:36 45.89174 -3.20322 37191 ft 434 kts 213°
2026-04-26 05:37 45.83984 -3.24775 37193 ft 434 kts 213°
2026-04-26 05:37 45.78799 -3.29218 37189 ft 434 kts 213°
2026-04-26 05:38 45.73668 -3.33604 37190 ft 434 kts 213°
2026-04-26 05:38 45.68474 -3.38034 37189 ft 433 kts 213°
2026-04-26 05:39 45.63300 -3.42433 37193 ft 433 kts 213°
2026-04-26 05:39 45.58136 -3.46820 37194 ft 433 kts 213°
2026-04-26 05:40 45.52949 -3.51232 37196 ft 434 kts 212°
2026-04-26 05:40 45.47756 -3.55615 37184 ft 434 kts 212°
2026-04-26 05:41 45.42587 -3.59971 37205 ft 434 kts 212°
2026-04-26 05:41 45.37388 -3.64349 37190 ft 434 kts 212°
2026-04-26 05:42 45.32207 -3.68700 37192 ft 434 kts 212°
2026-04-26 05:42 45.27004 -3.73062 37195 ft 434 kts 212°
2026-04-26 05:43 45.21786 -3.77428 37197 ft 434 kts 212°
2026-04-26 05:43 45.16597 -3.81759 37206 ft 434 kts 212°
2026-04-26 05:44 45.11368 -3.86112 37201 ft 435 kts 212°
2026-04-26 05:44 45.06189 -3.90422 37200 ft 435 kts 212°
2026-04-26 05:45 45.00973 -3.94736 37191 ft 434 kts 212°
2026-04-26 05:45 44.95756 -3.99053 37209 ft 434 kts 212°
2026-04-26 05:46 44.90542 -4.03358 37189 ft 435 kts 212°
2026-04-26 05:46 44.85322 -4.07669 37210 ft 435 kts 212°
2026-04-26 05:47 44.80132 -4.11940 37209 ft 435 kts 212°
2026-04-26 05:47 44.74907 -4.16228 37206 ft 435 kts 211°
2026-04-26 05:48 44.69673 -4.20509 37195 ft 435 kts 211°
2026-04-26 05:48 44.64448 -4.24775 37208 ft 435 kts 211°
2026-04-26 05:49 44.56602 -4.31186 37196 ft 435 kts 211°
2026-04-26 05:50 44.51361 -4.35440 37196 ft 435 kts 211°
2026-04-26 05:50 44.46191 -4.39635 37204 ft 436 kts 211°
2026-04-26 05:51 44.40904 -4.43920 37208 ft 436 kts 212°
2026-04-26 05:51 44.35699 -4.48278 37212 ft 437 kts 213°
2026-04-26 05:52 44.30494 -4.52715 37207 ft 437 kts 213°
2026-04-26 05:52 44.25296 -4.57135 37201 ft 438 kts 212°
2026-04-26 05:53 44.20078 -4.61541 37209 ft 438 kts 212°
2026-04-26 05:53 44.14857 -4.65934 37213 ft 439 kts 212°
2026-04-26 05:54 44.09666 -4.70290 37204 ft 439 kts 212°
2026-04-26 05:54 44.04443 -4.74664 37206 ft 439 kts 212°
2026-04-26 05:55 43.99205 -4.79044 37205 ft 439 kts 212°
2026-04-26 05:55 43.93971 -4.83413 37204 ft 439 kts 212°
2026-04-26 05:56 43.88730 -4.87777 37206 ft 439 kts 212°
2026-04-26 05:56 43.83476 -4.92136 37211 ft 440 kts 212°
2026-04-26 05:57 43.78257 -4.96465 37204 ft 440 kts 212°
2026-04-26 05:57 43.73005 -5.00815 37204 ft 440 kts 212°
2026-04-26 05:58 43.67753 -5.05155 37197 ft 440 kts 212°
2026-04-26 05:58 43.62488 -5.09492 37201 ft 440 kts 212°
2026-04-26 05:59 43.57266 -5.13785 37202 ft 439 kts 212°
2026-04-26 05:59 43.52017 -5.18094 37202 ft 439 kts 212°
2026-04-26 06:00 43.46767 -5.22395 37198 ft 439 kts 212°
2026-04-26 06:00 43.41504 -5.26690 37201 ft 440 kts 212°
2026-04-26 06:01 43.36237 -5.30987 37205 ft 440 kts 212°
2026-04-26 06:01 43.31000 -5.35254 37205 ft 441 kts 211°
2026-04-26 06:02 43.25720 -5.39543 37193 ft 442 kts 211°
2026-04-26 06:02 43.20423 -5.43836 37195 ft 442 kts 211°
2026-04-26 06:03 43.15122 -5.48124 37199 ft 442 kts 211°
2026-04-26 06:03 43.10714 -5.51684 37181 ft 443 kts 211°
2026-04-26 06:04 43.05409 -5.55962 37193 ft 443 kts 211°
2026-04-26 06:04 43.00104 -5.60228 37182 ft 442 kts 211°
2026-04-26 06:05 42.94800 -5.64485 37184 ft 442 kts 211°
2026-04-26 06:05 42.89502 -5.68731 37187 ft 442 kts 211°
2026-04-26 06:06 42.84249 -5.72931 37181 ft 441 kts 211°
2026-04-26 06:06 42.78960 -5.77153 37184 ft 441 kts 211°
2026-04-26 06:07 42.73648 -5.81383 37187 ft 440 kts 211°
2026-04-26 06:07 42.68366 -5.85581 37182 ft 440 kts 211°
2026-04-26 06:08 42.63114 -5.89746 37189 ft 440 kts 211°
2026-04-26 06:08 42.57843 -5.93920 37183 ft 439 kts 211°
2026-04-26 06:09 42.52516 -5.98128 37188 ft 439 kts 211°
2026-04-26 06:09 42.47272 -6.02262 37184 ft 439 kts 211°
2026-04-26 06:10 42.41998 -6.06412 37183 ft 439 kts 211°
2026-04-26 06:10 42.36714 -6.10559 37186 ft 440 kts 211°
2026-04-26 06:11 42.31408 -6.14721 37180 ft 440 kts 211°
2026-04-26 06:11 42.26105 -6.18870 37191 ft 441 kts 211°
2026-04-26 06:12 42.20829 -6.22986 37167 ft 440 kts 211°
2026-04-26 06:12 42.15526 -6.27118 37177 ft 440 kts 211°
2026-04-26 06:13 42.10214 -6.31248 37172 ft 441 kts 211°
2026-04-26 06:13 42.04908 -6.35369 37167 ft 440 kts 211°
2026-04-26 06:14 41.99597 -6.39486 37164 ft 440 kts 211°
2026-04-26 06:14 41.94848 -6.44571 37182 ft 437 kts 226°
2026-04-26 06:15 41.90631 -6.50389 37162 ft 437 kts 227°
2026-04-26 06:15 41.86389 -6.56228 37164 ft 437 kts 226°
2026-04-26 06:16 41.82115 -6.62040 37156 ft 437 kts 226°
2026-04-26 06:16 41.77819 -6.67802 37153 ft 437 kts 226°
2026-04-26 06:17 41.73526 -6.73564 37154 ft 437 kts 226°
2026-04-26 06:17 41.69232 -6.79325 37148 ft 437 kts 226°
2026-04-26 06:18 41.64962 -6.85037 37147 ft 437 kts 226°
2026-04-26 06:18 41.60661 -6.90778 37149 ft 437 kts 226°
2026-04-26 06:19 41.56350 -6.96515 37137 ft 437 kts 226°
2026-04-26 06:19 41.52038 -7.02249 37141 ft 438 kts 226°
2026-04-26 06:20 41.47716 -7.07984 37140 ft 438 kts 226°
2026-04-26 06:20 41.43398 -7.13701 37135 ft 437 kts 225°
2026-04-26 06:21 41.39113 -7.19358 37134 ft 437 kts 225°
2026-04-26 06:21 41.34794 -7.25051 37141 ft 436 kts 225°
2026-04-26 06:22 41.30482 -7.30729 37123 ft 436 kts 225°
2026-04-26 06:22 41.26171 -7.36386 37139 ft 436 kts 225°
2026-04-26 06:23 41.21853 -7.42042 37138 ft 436 kts 225°
2026-04-26 06:23 41.17567 -7.47651 37130 ft 435 kts 225°
2026-04-26 06:24 41.13260 -7.53274 37126 ft 434 kts 225°
2026-04-26 06:24 41.08952 -7.58887 37128 ft 434 kts 225°
2026-04-26 06:25 41.04645 -7.64481 37123 ft 433 kts 225°
2026-04-26 06:25 41.00348 -7.70066 37133 ft 433 kts 226°
2026-04-26 06:26 40.96043 -7.75650 37123 ft 433 kts 225°
2026-04-26 06:26 40.91740 -7.81205 37121 ft 433 kts 225°
2026-04-26 06:27 40.87432 -7.86766 37128 ft 433 kts 225°
2026-04-26 06:27 40.83121 -7.92318 37114 ft 433 kts 225°
2026-04-26 06:28 40.78804 -7.97865 37118 ft 433 kts 225°
2026-04-26 06:28 40.74515 -8.03369 37122 ft 433 kts 225°
2026-04-26 06:29 40.70184 -8.08916 37120 ft 434 kts 225°
2026-04-26 06:29 40.65846 -8.14459 37121 ft 434 kts 225°
2026-04-26 06:30 40.61503 -8.20004 37111 ft 435 kts 225°
2026-04-26 06:30 40.57154 -8.25540 37113 ft 435 kts 225°
2026-04-26 06:31 40.52826 -8.31041 37115 ft 436 kts 225°
2026-04-26 06:31 40.48467 -8.36570 37109 ft 436 kts 225°
2026-04-26 06:32 40.44099 -8.42099 37112 ft 436 kts 225°
2026-04-26 06:32 40.39724 -8.47626 37112 ft 436 kts 225°
2026-04-26 06:33 40.35358 -8.53133 37107 ft 436 kts 225°
2026-04-26 06:33 40.30989 -8.58633 37107 ft 435 kts 225°
2026-04-26 06:34 40.26650 -8.64083 37112 ft 434 kts 224°
2026-04-26 06:34 40.22292 -8.69550 37104 ft 434 kts 224°
2026-04-26 06:35 40.17941 -8.74999 37107 ft 433 kts 224°
2026-04-26 06:35 40.13580 -8.80449 37103 ft 433 kts 224°
2026-04-26 06:36 40.09222 -8.85885 37108 ft 433 kts 224°
2026-04-26 06:36 40.04896 -8.91266 37104 ft 433 kts 224°
2026-04-26 06:37 40.00530 -8.96686 37108 ft 433 kts 224°
2026-04-26 06:37 39.96155 -9.02113 37137 ft 437 kts 224°
2026-04-26 06:38 39.91732 -9.07593 37424 ft 440 kts 224°
2026-04-26 06:38 39.89513 -9.10336 37767 ft 436 kts 224°
2026-04-26 06:38 39.87329 -9.13031 38184 ft 432 kts 224°
2026-04-26 06:38 39.85144 -9.15725 38307 ft 434 kts 225°
2026-04-26 06:39 39.82944 -9.18437 38425 ft 435 kts 225°
2026-04-26 06:39 39.80776 -9.21108 38578 ft 436 kts 225°
2026-04-26 06:39 39.78574 -9.23819 38804 ft 435 kts 225°
2026-04-26 06:39 39.76381 -9.26516 38983 ft 433 kts 224°
2026-04-26 06:40 39.74201 -9.29193 39079 ft 430 kts 224°
2026-04-26 06:40 39.69857 -9.34521 39108 ft 431 kts 224°
2026-04-26 06:41 39.65462 -9.39905 39118 ft 436 kts 224°
2026-04-26 06:41 39.61029 -9.45323 39114 ft 440 kts 225°
2026-04-26 06:42 39.56574 -9.50756 39110 ft 437 kts 225°
2026-04-26 06:42 39.52223 -9.56048 39094 ft 427 kts 225°
2026-04-26 06:43 39.47901 -9.61300 39109 ft 425 kts 225°
2026-04-26 06:43 39.43555 -9.66572 39118 ft 431 kts 225°
2026-04-26 06:44 39.39158 -9.71896 39117 ft 435 kts 225°
2026-04-26 06:44 39.34714 -9.77267 39112 ft 439 kts 224°
2026-04-26 06:45 39.30297 -9.82596 39106 ft 435 kts 224°
2026-04-26 06:45 39.25906 -9.87883 39103 ft 428 kts 224°
2026-04-26 06:46 39.21598 -9.93070 39109 ft 422 kts 224°
2026-04-26 06:46 39.17279 -9.98241 39113 ft 427 kts 224°
2026-04-26 06:47 39.12920 -10.03474 39119 ft 431 kts 225°
2026-04-26 06:47 39.08517 -10.08754 39118 ft 434 kts 223°
2026-04-26 06:48 39.04128 -10.13987 39112 ft 431 kts 223°
2026-04-26 06:48 38.99786 -10.19151 39110 ft 425 kts 223°
2026-04-26 06:49 38.95457 -10.24300 39118 ft 421 kts 223°
2026-04-26 06:49 38.91144 -10.29420 39136 ft 424 kts 224°
2026-04-26 06:50 38.86791 -10.34583 39111 ft 428 kts 224°
2026-04-26 06:50 38.82386 -10.39798 39115 ft 429 kts 224°
2026-04-26 06:51 38.78056 -10.44913 39127 ft 424 kts 224°
2026-04-26 06:51 38.71579 -10.52542 39115 ft 419 kts 224°
2026-04-26 06:52 38.67269 -10.57618 39141 ft 423 kts 224°
2026-04-26 06:52 38.62914 -10.62731 39114 ft 426 kts 223°
2026-04-26 06:53 38.58538 -10.67856 39124 ft 427 kts 225°
2026-04-26 06:53 38.54152 -10.72996 39126 ft 427 kts 224°
2026-04-26 06:54 38.49776 -10.78097 39125 ft 425 kts 224°
2026-04-26 06:54 38.45448 -10.83142 39116 ft 425 kts 223°
2026-04-26 06:55 38.41093 -10.88214 39143 ft 423 kts 223°
2026-04-26 06:55 38.36728 -10.93291 39139 ft 423 kts 223°
2026-04-26 06:56 38.32411 -10.98302 39114 ft 422 kts 223°
2026-04-26 06:56 38.28063 -11.03333 39118 ft 421 kts 224°
2026-04-26 06:57 38.23718 -11.08356 39139 ft 420 kts 223°
2026-04-26 06:57 38.19427 -11.13309 39122 ft 419 kts 222°
2026-04-26 06:58 38.15119 -11.18270 39124 ft 418 kts 223°
2026-04-26 06:58 38.10802 -11.23239 39123 ft 419 kts 223°
2026-04-26 06:59 38.06489 -11.28193 39139 ft 419 kts 223°
2026-04-26 06:59 38.02170 -11.33149 39119 ft 420 kts 223°
2026-04-26 07:00 37.97838 -11.38107 39122 ft 421 kts 223°
2026-04-26 07:00 37.93471 -11.43098 39152 ft 421 kts 223°
2026-04-26 07:01 37.89119 -11.48061 39140 ft 422 kts 223°
2026-04-26 07:01 37.84784 -11.53001 39120 ft 423 kts 222°
2026-04-26 07:02 37.80442 -11.57938 39119 ft 422 kts 223°
2026-04-26 07:02 37.76055 -11.62917 39138 ft 421 kts 223°
2026-04-26 07:03 37.71706 -11.67846 39137 ft 420 kts 223°
2026-04-26 07:03 37.67368 -11.72755 39119 ft 419 kts 222°
2026-04-26 07:04 37.63016 -11.77672 39136 ft 419 kts 222°
2026-04-26 07:04 37.58674 -11.82571 39134 ft 418 kts 223°
2026-04-26 07:05 37.54367 -11.87419 39134 ft 418 kts 223°
2026-04-26 07:05 37.50023 -11.92308 39137 ft 420 kts 222°
2026-04-26 07:06 37.45669 -11.97198 39133 ft 419 kts 222°
2026-04-26 07:06 37.41316 -12.02068 39136 ft 419 kts 222°
2026-04-26 07:07 37.36955 -12.06946 39126 ft 420 kts 222°
2026-04-26 07:07 37.32587 -12.11825 39134 ft 421 kts 222°
2026-04-26 07:08 37.28215 -12.16698 39140 ft 420 kts 222°
2026-04-26 07:08 37.23869 -12.21542 39137 ft 421 kts 222°
2026-04-26 07:09 37.19494 -12.26405 39138 ft 420 kts 222°
2026-04-26 07:09 37.15123 -12.31258 39144 ft 419 kts 221°
2026-04-26 07:11 37.04181 -12.43360 39139 ft 420 kts 221°
2026-04-26 07:11 36.99797 -12.48199 39142 ft 421 kts 221°
2026-04-26 07:12 36.95422 -12.53021 39140 ft 422 kts 221°
2026-04-26 07:12 36.91015 -12.57867 39140 ft 422 kts 221°
2026-04-26 07:13 36.86603 -12.62711 39147 ft 422 kts 221°
2026-04-26 07:13 36.82190 -12.67550 39134 ft 422 kts 221°
2026-04-26 07:14 36.77787 -12.72372 39140 ft 421 kts 221°
2026-04-26 07:14 36.73386 -12.77182 39149 ft 420 kts 221°
2026-04-26 07:15 36.68995 -12.81977 39141 ft 420 kts 221°
2026-04-26 07:15 36.64625 -12.86736 39139 ft 420 kts 220°
2026-04-26 07:16 36.60230 -12.91517 39151 ft 419 kts 220°
2026-04-26 07:16 36.55831 -12.96293 39153 ft 420 kts 221°
2026-04-26 07:17 36.51420 -13.01075 39137 ft 421 kts 220°
2026-04-26 07:17 36.47010 -13.05849 39140 ft 421 kts 220°
2026-04-26 07:18 36.42591 -13.10624 39154 ft 421 kts 220°
2026-04-26 07:18 36.38170 -13.15399 39143 ft 421 kts 220°
2026-04-26 07:19 36.33770 -13.20141 39127 ft 422 kts 220°
2026-04-26 07:19 36.29346 -13.24900 39143 ft 421 kts 220°
2026-04-26 07:20 36.24915 -13.29657 39153 ft 421 kts 220°
2026-04-26 07:20 36.20480 -13.34414 39147 ft 422 kts 220°
2026-04-26 07:21 36.16038 -13.39174 39141 ft 423 kts 220°
2026-04-26 07:21 36.11618 -13.43902 39146 ft 422 kts 220°
2026-04-26 07:22 36.07173 -13.48643 39148 ft 422 kts 220°
2026-04-26 07:22 36.03445 -13.52616 39147 ft 422 kts 220°
2026-04-26 07:23 35.98283 -13.58118 39134 ft 422 kts 220°
2026-04-26 07:23 35.94585 -13.62046 39148 ft 422 kts 220°
2026-04-26 07:24 35.90131 -13.66770 39147 ft 422 kts 220°
2026-04-26 07:24 35.85680 -13.71484 39142 ft 422 kts 220°
2026-04-26 07:25 35.81222 -13.76203 39148 ft 422 kts 219°
2026-04-26 07:25 35.76764 -13.80913 39156 ft 422 kts 220°
2026-04-26 07:26 35.72329 -13.85587 39149 ft 423 kts 219°
2026-04-26 07:26 35.67865 -13.90287 39130 ft 423 kts 220°
2026-04-26 07:27 35.63393 -13.94994 39149 ft 423 kts 219°
2026-04-26 07:27 35.58920 -13.99693 39156 ft 423 kts 219°
2026-04-26 07:28 35.54432 -14.04398 39146 ft 424 kts 219°
2026-04-26 07:28 35.49975 -14.09063 39146 ft 424 kts 219°
2026-04-26 07:29 35.45481 -14.13759 39159 ft 424 kts 220°
2026-04-26 07:29 35.40991 -14.18451 39155 ft 424 kts 219°
2026-04-26 07:30 35.36505 -14.23130 39153 ft 423 kts 220°
2026-04-26 07:30 35.32011 -14.27800 39150 ft 424 kts 220°
2026-04-26 07:31 35.27520 -14.32458 39161 ft 423 kts 220°
2026-04-26 07:31 35.23047 -14.37098 39158 ft 424 kts 220°
2026-04-26 07:32 35.18541 -14.41766 39140 ft 425 kts 220°
2026-04-26 07:32 35.14037 -14.46425 39153 ft 424 kts 220°
2026-04-26 07:33 35.09531 -14.51078 39169 ft 424 kts 220°
2026-04-26 07:33 35.05030 -14.55717 39164 ft 424 kts 220°
2026-04-26 07:34 35.00554 -14.60332 39149 ft 424 kts 220°
2026-04-26 07:34 34.96055 -14.64955 39155 ft 423 kts 220°
2026-04-26 07:35 34.91547 -14.69584 39167 ft 423 kts 220°
2026-04-26 07:35 34.87038 -14.74203 39153 ft 424 kts 220°
2026-04-26 07:36 34.82535 -14.78806 39142 ft 423 kts 220°
2026-04-26 07:36 34.80272 -14.81119 39023 ft 427 kts 220°
2026-04-26 07:36 34.78021 -14.83424 38785 ft 430 kts 220°
2026-04-26 07:36 34.75733 -14.85759 38507 ft 430 kts 220°
2026-04-26 07:37 34.73453 -14.88085 38225 ft 424 kts 220°
2026-04-26 07:37 34.71206 -14.90375 37938 ft 420 kts 220°
2026-04-26 07:37 34.68970 -14.92653 37665 ft 418 kts 220°
2026-04-26 07:37 34.66747 -14.94918 37409 ft 416 kts 220°
2026-04-26 07:38 34.64530 -14.97174 37132 ft 415 kts 220°
2026-04-26 07:38 34.62321 -14.99417 36881 ft 413 kts 219°
2026-04-26 07:38 34.60124 -15.01644 36618 ft 411 kts 219°
2026-04-26 07:38 34.57927 -15.03872 36360 ft 411 kts 219°
2026-04-26 07:39 34.55738 -15.06094 36111 ft 410 kts 219°
2026-04-26 07:39 34.53584 -15.08279 35870 ft 409 kts 219°
2026-04-26 07:39 34.51408 -15.10484 35611 ft 408 kts 219°
2026-04-26 07:39 34.49229 -15.12688 35369 ft 407 kts 219°
2026-04-26 07:40 34.47060 -15.14880 35125 ft 405 kts 219°
2026-04-26 07:40 34.44899 -15.17063 34879 ft 404 kts 219°
2026-04-26 07:40 34.42753 -15.19233 34588 ft 399 kts 218°
2026-04-26 07:40 34.40639 -15.21372 34236 ft 394 kts 219°
2026-04-26 07:41 34.38536 -15.23490 33822 ft 391 kts 219°
2026-04-26 07:41 34.36453 -15.25586 33430 ft 388 kts 218°
2026-04-26 07:41 34.34391 -15.27658 33034 ft 384 kts 219°
2026-04-26 07:41 34.32344 -15.29718 32660 ft 380 kts 218°
2026-04-26 07:42 34.30323 -15.31751 32315 ft 377 kts 218°
2026-04-26 07:42 34.28300 -15.33787 31954 ft 380 kts 218°
2026-04-26 07:42 34.26283 -15.35817 31601 ft 384 kts 218°
2026-04-26 07:42 34.24205 -15.37906 31219 ft 382 kts 219°
2026-04-26 07:43 34.22195 -15.39922 30854 ft 380 kts 219°
2026-04-26 07:43 34.20171 -15.41950 30492 ft 378 kts 219°
2026-04-26 07:43 34.18154 -15.43971 30122 ft 375 kts 219°
2026-04-26 07:43 34.16154 -15.45973 29705 ft 373 kts 219°
2026-04-26 07:44 34.14163 -15.47965 29304 ft 370 kts 219°
2026-04-26 07:44 34.12190 -15.49936 28943 ft 368 kts 219°
2026-04-26 07:44 34.10219 -15.51906 28565 ft 366 kts 219°
2026-04-26 07:44 34.08274 -15.53842 28199 ft 361 kts 219°
2026-04-26 07:45 34.06357 -15.55773 27822 ft 358 kts 219°
2026-04-26 07:45 34.04450 -15.57713 27510 ft 361 kts 220°
2026-04-26 07:45 34.02521 -15.59651 27113 ft 361 kts 218°
2026-04-26 07:45 34.00578 -15.61555 26751 ft 358 kts 219°
2026-04-26 07:46 33.98658 -15.63451 26393 ft 356 kts 219°
2026-04-26 07:46 33.96752 -15.65339 26036 ft 354 kts 219°
2026-04-26 07:46 33.94880 -15.67197 25677 ft 353 kts 220°
2026-04-26 07:46 33.92989 -15.69075 25326 ft 351 kts 220°
2026-04-26 07:47 33.91112 -15.70939 24970 ft 349 kts 220°
2026-04-26 07:47 33.89239 -15.72799 24621 ft 350 kts 220°
2026-04-26 07:47 33.87359 -15.74665 24253 ft 351 kts 220°
2026-04-26 07:47 33.85471 -15.76536 23889 ft 351 kts 221°
2026-04-26 07:48 33.83582 -15.78407 23503 ft 351 kts 220°
2026-04-26 07:48 33.81701 -15.80266 23102 ft 349 kts 221°
2026-04-26 07:48 33.79830 -15.82122 22724 ft 347 kts 221°
2026-04-26 07:48 33.77976 -15.83960 22365 ft 345 kts 220°
2026-04-26 07:49 33.76129 -15.85789 22015 ft 342 kts 220°
2026-04-26 07:49 33.74320 -15.87577 21666 ft 340 kts 220°
2026-04-26 07:49 33.72500 -15.89374 21322 ft 338 kts 220°
2026-04-26 07:50 33.68891 -15.92936 20640 ft 334 kts 220°
2026-04-26 07:50 33.67101 -15.94700 20297 ft 332 kts 220°
2026-04-26 07:50 33.65252 -15.96355 19957 ft 332 kts 215°
2026-04-26 07:50 33.63315 -15.97856 19623 ft 331 kts 212°
2026-04-26 07:51 33.61361 -15.99310 19285 ft 330 kts 212°
2026-04-26 07:51 33.59407 -16.00758 18943 ft 329 kts 213°
2026-04-26 07:51 33.57467 -16.02205 18606 ft 328 kts 213°
2026-04-26 07:51 33.55531 -16.03661 18243 ft 328 kts 213°
2026-04-26 07:52 33.53632 -16.05096 17888 ft 327 kts 213°
2026-04-26 07:52 33.51720 -16.06551 17531 ft 325 kts 213°
2026-04-26 07:52 33.49817 -16.08001 17197 ft 323 kts 213°
2026-04-26 07:52 33.47927 -16.09441 16866 ft 321 kts 213°
2026-04-26 07:53 33.46045 -16.10874 16538 ft 320 kts 213°
2026-04-26 07:53 33.44173 -16.12303 16213 ft 319 kts 212°
2026-04-26 07:53 33.42307 -16.13725 15887 ft 317 kts 212°
2026-04-26 07:53 33.40449 -16.15139 15566 ft 316 kts 213°
2026-04-26 07:54 33.38596 -16.16548 15240 ft 315 kts 213°
2026-04-26 07:54 33.36746 -16.17956 14911 ft 316 kts 212°
2026-04-26 07:54 33.34894 -16.19366 14579 ft 315 kts 212°
2026-04-26 07:54 33.33046 -16.20772 14272 ft 314 kts 212°
2026-04-26 07:55 33.31225 -16.22155 13922 ft 314 kts 212°
2026-04-26 07:55 33.29386 -16.23553 13556 ft 313 kts 212°
2026-04-26 07:55 33.27551 -16.24948 13224 ft 312 kts 212°
2026-04-26 07:55 33.25725 -16.26336 12899 ft 311 kts 211°
2026-04-26 07:56 33.23900 -16.27719 12570 ft 309 kts 211°
2026-04-26 07:56 33.22087 -16.29093 12245 ft 308 kts 212°
2026-04-26 07:56 33.20277 -16.30463 11925 ft 307 kts 211°
2026-04-26 07:56 33.18480 -16.31823 11620 ft 306 kts 211°
2026-04-26 07:57 33.16686 -16.33182 11307 ft 305 kts 210°
2026-04-26 07:57 33.14898 -16.34536 10989 ft 304 kts 210°
2026-04-26 07:57 33.13109 -16.35890 10681 ft 303 kts 211°
2026-04-26 07:57 33.11334 -16.37232 10388 ft 303 kts 211°
2026-04-26 07:58 33.09573 -16.38561 10232 ft 296 kts 210°
2026-04-26 07:58 33.07874 -16.39843 10066 ft 291 kts 210°
2026-04-26 07:58 33.06149 -16.41148 9668 ft 294 kts 211°
2026-04-26 07:58 33.04428 -16.42449 9378 ft 294 kts 211°
2026-04-26 07:59 33.02703 -16.43754 9067 ft 293 kts 211°
2026-04-26 07:59 33.00982 -16.45051 8751 ft 293 kts 211°
2026-04-26 07:59 32.99263 -16.46348 8445 ft 292 kts 211°
2026-04-26 07:59 32.97549 -16.47640 8139 ft 291 kts 211°
2026-04-26 08:00 32.95839 -16.48929 7839 ft 291 kts 211°
2026-04-26 08:00 32.94127 -16.50218 7526 ft 290 kts 211°
2026-04-26 08:00 32.92437 -16.51524 7203 ft 290 kts 215°
2026-04-26 08:00 32.90925 -16.53077 6913 ft 290 kts 222°
2026-04-26 08:01 32.89463 -16.54719 6621 ft 289 kts 222°
2026-04-26 08:01 32.87989 -16.56343 6306 ft 288 kts 221°
2026-04-26 08:01 32.86529 -16.57945 6146 ft 282 kts 221°
2026-04-26 08:01 32.85092 -16.59486 5958 ft 276 kts 221°
2026-04-26 08:02 32.83658 -16.61006 5675 ft 276 kts 221°
2026-04-26 08:02 32.82205 -16.62482 5403 ft 275 kts 215°
2026-04-26 08:02 32.80554 -16.63606 5109 ft 273 kts 201°
2026-04-26 08:02 32.78777 -16.64332 4868 ft 269 kts 196°
2026-04-26 08:03 32.76997 -16.65027 4567 ft 268 kts 196°
2026-04-26 08:03 32.75228 -16.65734 4304 ft 268 kts 197°
2026-04-26 08:03 32.73472 -16.66441 4114 ft 264 kts 197°
2026-04-26 08:03 32.71770 -16.67130 3986 ft 259 kts 197°
2026-04-26 08:04 32.70087 -16.67812 3859 ft 252 kts 197°
2026-04-26 08:04 32.68449 -16.68477 3754 ft 245 kts 197°
2026-04-26 08:04 32.66857 -16.69120 3589 ft 239 kts 197°
2026-04-26 08:04 32.65310 -16.69748 3397 ft 231 kts 197°
2026-04-26 08:05 32.63796 -16.70364 3148 ft 228 kts 201°
2026-04-26 08:05 32.62435 -16.71239 2915 ft 220 kts 220°
2026-04-26 08:05 32.61453 -16.72560 2705 ft 209 kts 242°
2026-04-26 08:05 32.60911 -16.74104 2486 ft 196 kts 261°
2026-04-26 08:06 32.60777 -16.75615 2269 ft 179 kts 277°
2026-04-26 08:06 32.60938 -16.77032 2101 ft 160 kts 288°
2026-04-26 08:06 32.61286 -16.78183 1997 ft 143 kts 303°
2026-04-26 08:06 32.61842 -16.79116 2012 ft 138 kts 319°
2026-04-26 08:07 32.62632 -16.79701 1767 ft 133 kts 345°
2026-04-26 08:07 32.63540 -16.79937 1589 ft 132 kts 352°
2026-04-26 08:07 32.64460 -16.80138 1305 ft 135 kts 355°
2026-04-26 08:07 32.65400 -16.80180 1018 ft 136 kts 359°
2026-04-26 08:08 32.66319 -16.80159 792 ft 129 kts
2026-04-26 08:08 32.67167 -16.79953 568 ft 122 kts 23°
2026-04-26 08:08 32.67901 -16.79475 468 ft 125 kts 31°
2026-04-26 08:08 32.68618 -16.78802 291 ft 138 kts 40°
2026-04-26 08:09 32.69292 -16.78018 174 ft 127 kts 42°
2026-04-26 08:09 32.69821 -16.77410 183 ft 79 kts 44°
2026-04-26 08:09 32.70062 -16.77129 186 ft 28 kts 43°
2026-04-26 08:09 32.70197 -16.76972 193 ft 26 kts 45°
2026-04-26 08:10 32.70299 -16.76853 187 ft 13 kts 43°
2026-04-26 08:10 32.70359 -16.76821 193 ft 9 kts 16°
2026-04-26 08:10 32.70409 -16.76786 199 ft 9 kts 67°
2026-04-26 08:10 32.70375 -16.76750 200 ft 8 kts 201°
2026-04-26 08:11 32.70335 -16.76804 185 ft 10 kts 227°
2026-04-26 08:11 32.70272 -16.76879 191 ft 16 kts 225°
2026-04-26 08:11 32.70176 -16.76992 199 ft 22 kts 224°
2026-04-26 08:11 32.70063 -16.77125 183 ft 22 kts 225°
2026-04-26 08:12 32.69979 -16.77177 187 ft 13 kts 182°
2026-04-26 08:12 32.69889 -16.77178 197 ft 14 kts 180°
2026-04-26 08:12 32.69796 -16.77231 179 ft 17 kts 227°
2026-04-26 08:12 32.69700 -16.77348 169 ft 22 kts 226°
2026-04-26 08:13 32.69593 -16.77479 168 ft 20 kts 226°
2026-04-26 08:13 32.69514 -16.77577 168 ft 16 kts 226°
2026-04-26 08:13 32.69447 -16.77660 168 ft 9 kts 224°
2026-04-26 08:13 32.69410 -16.77652 168 ft 5 kts 142°
2026-04-26 08:14 32.69390 -16.77632 168 ft 2 kts 139°
2026-04-26 08:14 32.69389 -16.77631 168 ft 0 kts 139°